[[{"header":{"parameterUnit":"m.s-1","parameterCategory":1,"la1":30.2991,"la2":30.254,"lo1":-89.0895,"lo2":-89.0444,"dy":0.0017,"dx":0.0017,"nx":28,"ny":28,"refTime":"2023-08-20T21:00:00:Z","depth":0,"parameterNumber":2,"parameterNumberName":"U-component_of_WINDS"},"data":[0,0,0,0,0,0,0,0,0,0,0,0,0,0,0,0,0,0,0,0,0,0,0,0,0,0,0,0,0,0,0,0,0,0,0,0,0,0,0,0,0,0,0,0,0,0,0,0,0,0,0,0,0,0,0,0,0,0,-3.0644,-3.0643,0,-3.0637,-3.0637,-3.0637,-3.0555,-3.0553,-3.0551,-3.0549,-3.0543,-3.0545,-3.0547,0,0,0,0,0,0,0,0,0,0,0,0,0,-3.0585,-3.0586,-3.0644,-3.0643,-3.0643,-3.0637,-3.0637,-3.0637,-3.0556,-3.0553,-3.0551,-3.0548,-3.0543,-3.0545,-3.0547,0,0,0,0,0,0,0,0,0,0,0,0,0,-3.0598,-3.0587,-3.0644,-3.0602,-3.0598,-3.0638,-3.0637,-3.0637,-3.0556,-3.0553,-3.055,-3.0547,-3.0542,-3.0545,-3.0547,-3.0626,0,0,-3.0555,-3.0556,0,0,0,0,0,0,0,0,-3.0597,-3.06,-3.0608,-3.0605,-3.0601,-3.0594,-3.0614,-3.0633,-3.0557,-3.0572,-3.0549,-3.0546,-3.0563,-3.0563,-3.0569,-3.0626,-3.0625,-3.0556,-3.0557,-3.0558,-3.0559,0,0,0,0,0,0,0,-3.0596,-3.06,-3.0641,-3.0608,-3.0604,-3.0584,-3.0582,-3.0618,-3.0585,-3.0571,-3.0565,-3.0565,-3.056,-3.0567,-3.0568,-3.0625,-3.0555,-3.0558,-3.0559,-3.056,-3.0745,-3.0748,0,0,0,0,0,0,-3.0601,-3.0599,-3.0641,-3.0641,-3.0591,-3.0587,-3.0585,-3.0599,-3.0584,-3.0579,-3.0568,-3.0561,-3.0564,-3.0565,-3.0568,-3.0658,-3.0558,-3.0561,-3.0562,-3.0742,-3.0746,-3.075,0,0,0,0,0,0,-3.06,-3.0606,-3.0641,-3.0619,-3.0622,-3.0592,-3.0608,-3.0601,-3.0607,-3.0582,-3.0576,-3.0581,-3.0561,-3.0564,-3.0612,-3.0657,-3.0562,-3.0564,-3.0738,-3.0743,-3.0748,-3.084,0,0,0,0,0,0,-3.0599,-3.0606,-3.0635,-3.062,-3.0623,-3.0686,-3.0611,-3.0603,-3.0612,-3.0604,-3.0593,-3.0588,-3.0559,-3.0608,-3.0615,-3.0659,-3.0566,-3.0734,-3.074,-3.0746,-3.0833,-3.0847,-3.086,0,0,0,0,0,-3.0597,-3.0661,-3.0637,-3.0643,-3.0659,-3.0689,-3.069,-3.0656,-3.0616,-3.0645,-3.0629,-3.0588,-3.0651,-3.0614,-3.062,-3.0666,-3.0731,-3.0739,-3.0746,-3.0827,-3.0845,-3.086,0,0,0,0,0,0,-3.0683,-3.0659,-3.0631,-3.0693,-3.0693,-3.0675,-3.071,-3.0676,-3.0688,-3.068,-3.0637,-3.0635,-3.0689,-3.0683,-3.0641,-3.0741,-3.0684,-3.0693,-3.0743,-3.076,-3.0773,-3.0773,-3.0569,0,0,0,0,0,-3.0709,-3.0735,-3.0712,-3.0769,-3.077,-3.0741,-3.0752,-3.0726,-3.0725,-3.0724,-3.0712,-3.0712,-3.0732,-3.0746,-3.0763,-3.0832,-3.0828,-3.0867,-3.088,-3.0892,-3.0899,-3.0935,-3.0951,-3.0774,-3.0774,-3.0774,0,0,-3.0763,-3.0753,-3.0772,-3.0786,-3.0783,-3.081,-3.0741,-3.0773,-3.0793,-3.0729,-3.0773,-3.0764,-3.0762,-3.0821,-3.0846,-3.0817,-3.0948,-3.0901,-3.091,-3.0912,-3.0944,-3.0961,-3.0976,-3.0779,-3.0778,-3.0778,0,0,-3.0875,-3.0871,-3.0917,-3.0916,-3.0912,-3.0892,-3.0904,-3.089,-3.0882,-3.0925,-3.0878,-3.0901,-3.0936,-3.0936,-3.0941,-3.1055,-3.1017,-3.1062,-3.1132,-3.1167,-3.1181,-3.1193,-3.1233,-3.1248,-3.107,-3.107,-3.107,0,-3.0942,-3.0982,-3.0945,-3.098,-3.0987,-3.0931,-3.0977,-3.0978,-3.0981,-3.0987,-3.0954,-3.0997,-3.0992,-3.105,-3.1077,-3.1083,-3.1095,-3.1062,-3.1182,-3.1194,-3.1205,-3.1242,-3.1257,-3.1075,-3.1075,-3.1074,-3.1074,0,-3.1064,-3.1093,-3.113,-3.1134,-3.1146,-3.1187,-3.1156,-3.1172,-3.1145,-3.1129,-3.1174,-3.1166,-3.118,-3.1192,-3.1166,-3.1246,-3.1228,-3.119,-3.1131,-3.1228,-3.1262,-3.1276,-3.1083,-3.1081,-3.1079,-3.1078,0,0,-3.1229,-3.1212,-3.1227,-3.1228,-3.122,-3.1241,-3.128,-3.1293,-3.1308,-3.1312,-3.1343,-3.1374,-3.1339,-3.1344,-3.1318,-3.1349,-3.1439,-3.1307,-3.1306,-3.1331,-3.1525,-3.1553,-3.157,-3.1414,-3.1417,-3.1419,-3.1525,0,-3.1336,-3.14,-3.1368,-3.1436,-3.1461,-3.1409,-3.1442,-3.1441,-3.1427,-3.1447,-3.1431,-3.1454,-3.1406,-3.1409,-3.1437,-3.1422,-3.1477,-3.1414,-3.1442,-3.1443,-3.1442,-3.1588,-3.1618,-3.1718,-3.1538,-3.154,-3.1542,0,-3.1469,-3.1479,-3.1549,-3.1537,-3.1547,-3.1577,-3.1587,-3.1606,-3.1605,-3.1592,-3.1599,-3.1566,-3.1602,-3.1546,-3.1595,-3.1553,-3.1563,-3.1557,-3.156,-3.156,-3.1497,-3.1591,-3.1749,-3.1764,-3.1563,-3.1561,-3.156,0,-3.1581,-3.1612,-3.1658,-3.166,-3.1648,-3.167,-3.1666,-3.1661,-3.1671,-3.168,-3.1686,-3.17,-3.1707,-3.1718,-3.169,-3.1651,-3.1743,-3.1684,-3.1733,-3.1734,-3.1754,-3.1752,-3.1915,-3.1763,-3.1762,-3.1762,-3.1762,0,-3.1703,-3.1748,-3.1707,-3.1736,-3.1784,-3.1748,-3.1797,-3.1787,-3.1783,-3.1808,-3.1765,-3.1789,-3.175,-3.1771,-3.1749,-3.1793,-3.1797,-3.1788,-3.1781,-3.1791,-3.1792,-3.1796,-3.1787,-3.1766,-3.1765,-3.1764,-3.1764,0,-3.1836,-3.181,-3.1857,-3.1841,-3.1838,-3.1875,-3.1861,-3.1887,-3.187,-3.1902,-3.1908,-3.1882,-3.1904,-3.1877,-3.1897,-3.1882,-3.1942,-3.1925,-3.1942,-3.1937,-3.1987,-3.1983,-3.2156,-3.2177,-3.2013,-3.2015,-3.2016,0,-3.1915,-3.1948,-3.1936,-3.195,-3.1948,-3.1971,-3.1981,-3.1946,-3.1959,-3.196,-3.1985,-3.2003,-3.2016,-3.2055,-3.2037,-3.2052,-3.2035,-3.2095,-3.2037,-3.2046,-3.2035,-3.2033,-3.2036,-3.2107,-3.2109,-3.211,-3.2112,0,-3.2057,-3.2043,-3.2059,-3.2072,-3.2085,-3.2093,-3.2098,-3.2112,-3.2076,-3.2092,-3.2114,-3.2124,-3.2145,-3.2164,-3.2174,-3.217,-3.2135,-3.213,-3.2142,-3.2152,-3.216,-3.2155,-3.1973,-3.2126,-3.2125,-3.2123,-3.2123,-3.2122,-3.2164,-3.2191,-3.2187,-3.2207,-3.2207,-3.2212,-3.2235,-3.2221,-3.2239,-3.2253,-3.2232,-3.2259,-3.2257,-3.2267,-3.2267,-3.2288,-3.2262,-3.228,-3.2284,-3.2289,-3.2296,-3.2158,-3.229,-3.229,-3.2289,-3.2289,-3.2289,0,-3.2304,-3.2299,-3.2317,-3.2325,-3.2341,-3.2307,-3.231,-3.2325,-3.235,-3.2351,-3.2364,-3.239,-3.2408,-3.2393,-3.2408,-3.2428,-3.2412,-3.2433,-3.243,-3.243,-3.2319,-3.2306,-3.2445,-3.2445,-3.2445,-3.2445,-3.2445,-3.2445,-3.2378,-3.2421,-3.2407,-3.245,-3.2444,-3.2471,-3.2476,-3.2481,-3.2481,-3.2511,-3.2526,-3.2516,-3.251,-3.2524,-3.2539,-3.2534,-3.2542,-3.2568,-3.2557,-3.2453,-3.2438,-3.2423,-3.2411,-3.257,-3.257,-3.2667,-3.2668,-3.2668]},{"header":{"parameterUnit":"m.s-1","parameterCategory":1,"la1":30.2991,"la2":30.254,"lo1":-89.0895,"lo2":-89.0444,"dy":0.0017,"dx":0.0017,"nx":28,"ny":28,"refTime":"2023-08-20T21:00:00:Z","depth":0,"parameterNumber":3,"parameterNumberName":"V-component_of_WINDS"},"data":[0,0,0,0,0,0,0,0,0,0,0,0,0,0,0,0,0,0,0,0,0,0,0,0,0,0,0,0,0,0,0,0,0,0,0,0,0,0,0,0,0,0,0,0,0,0,0,0,0,0,0,0,0,0,0,0,0,0,2.3739,2.3739,0,2.3753,2.3753,2.3754,2.3736,2.3735,2.3734,2.3734,2.3746,2.3747,2.3748,0,0,0,0,0,0,0,0,0,0,0,0,0,2.3694,2.3695,2.3739,2.3739,2.3739,2.3753,2.3753,2.3754,2.3736,2.3735,2.3734,2.3733,2.3746,2.3747,2.3748,0,0,0,0,0,0,0,0,0,0,0,0,0,2.3712,2.3696,2.3739,2.3732,2.3732,2.3753,2.3753,2.3754,2.3736,2.3735,2.3734,2.3733,2.3746,2.3747,2.3748,2.3777,0,0,2.3753,2.3753,0,0,0,0,0,0,0,0,2.3711,2.3713,2.3733,2.3733,2.3732,2.3742,2.3742,2.3761,2.3736,2.3734,2.3734,2.3732,2.3745,2.3747,2.3752,2.3777,2.3778,2.3753,2.3754,2.3754,2.3755,0,0,0,0,0,0,0,2.371,2.3713,2.3745,2.3733,2.3733,2.3728,2.3729,2.3746,2.3745,2.3734,2.3733,2.3735,2.3745,2.375,2.3752,2.3778,2.3753,2.3754,2.3755,2.3755,2.3828,2.3829,0,0,0,0,0,0,2.3709,2.3712,2.3744,2.3745,2.3719,2.3729,2.3731,2.374,2.3745,2.3745,2.3736,2.3734,2.3748,2.375,2.3752,2.3785,2.3754,2.3756,2.3756,2.3827,2.3828,2.3829,0,0,0,0,0,0,2.3709,2.3712,2.3744,2.3728,2.3732,2.3731,2.3741,2.374,2.3746,2.3746,2.3746,2.3741,2.3748,2.375,2.3771,2.3785,2.3756,2.3758,2.3826,2.3827,2.3829,2.3852,0,0,0,0,0,0,2.3707,2.3712,2.3723,2.3728,2.3733,2.3763,2.3742,2.3741,2.3748,2.3746,2.3751,2.3751,2.3747,2.3769,2.3772,2.3787,2.3759,2.3824,2.3826,2.3828,2.385,2.3854,2.3858,0,0,0,0,0,2.3706,2.3729,2.3724,2.3728,2.3746,2.3763,2.3766,2.3761,2.375,2.376,2.3761,2.3751,2.3784,2.3771,2.3775,2.379,2.3823,2.3826,2.3828,2.3848,2.3853,2.3858,0,0,0,0,0,0,2.3724,2.3729,2.3724,2.375,2.3756,2.376,2.3774,2.3767,2.3776,2.3774,2.3767,2.3769,2.3791,2.3793,2.3779,2.3818,2.3801,2.3805,2.3816,2.3821,2.3824,2.3823,2.376,0,0,0,0,0,2.3732,2.3746,2.3749,2.3771,2.3775,2.3774,2.3781,2.3777,2.3784,2.3786,2.3788,2.3794,2.3806,2.3813,2.3824,2.3851,2.3851,2.3863,2.3867,2.387,2.3873,2.3887,2.3892,2.3837,2.3837,2.3837,0,0,2.3747,2.3751,2.376,2.3775,2.378,2.3794,2.3777,2.3792,2.3802,2.3788,2.3808,2.381,2.3816,2.384,2.385,2.3842,2.3888,2.3874,2.3876,2.3877,2.389,2.3895,2.3899,2.3839,2.3838,2.3838,0,0,2.378,2.3786,2.3805,2.381,2.3818,2.3817,2.3822,2.3827,2.3828,2.3848,2.3838,2.385,2.387,2.3875,2.388,2.3917,2.3908,2.3921,2.3941,2.3955,2.3959,2.3963,2.3975,2.398,2.3924,2.3924,2.3924,0,2.3797,2.3819,2.3815,2.3832,2.3838,2.3828,2.3847,2.3852,2.3863,2.3867,2.3858,2.3884,2.3887,2.3912,2.3921,2.3926,2.393,2.392,2.3959,2.3963,2.3966,2.3978,2.3982,2.3925,2.3925,2.3925,2.3925,0,2.3839,2.3854,2.3868,2.388,2.3888,2.3906,2.3904,2.3914,2.3909,2.3909,2.393,2.3934,2.3945,2.3951,2.3947,2.3975,2.397,2.396,2.3943,2.3973,2.3983,2.3988,2.3927,2.3927,2.3926,2.3926,0,0,2.3883,2.3894,2.3899,2.3904,2.3912,2.3923,2.3941,2.3953,2.396,2.3968,2.3982,2.4,2.3991,2.3997,2.3993,2.4005,2.4034,2.3994,2.3994,2.4,2.4064,2.407,2.4076,2.4028,2.4029,2.403,2.4063,0,2.3917,2.3947,2.3945,2.3973,2.3986,2.3977,2.3992,2.3998,2.3999,2.4011,2.4011,2.4024,2.4012,2.4015,2.4027,2.4028,2.4046,2.4025,2.404,2.404,2.4037,2.4082,2.4088,2.4119,2.4068,2.4068,2.4069,0,2.3959,2.3969,2.3999,2.4006,2.4012,2.4025,2.4036,2.4047,2.4054,2.4054,2.4061,2.4056,2.4072,2.4057,2.4079,2.4065,2.4071,2.4073,2.4074,2.4074,2.4055,2.4082,2.4129,2.4134,2.4076,2.4075,2.4075,0,2.3987,2.4009,2.4029,2.4034,2.4043,2.4052,2.4056,2.4063,2.407,2.408,2.4084,2.4095,2.4101,2.411,2.4107,2.4096,2.413,2.4114,2.4129,2.4129,2.4136,2.4135,2.4184,2.4142,2.4142,2.4142,2.4142,0,2.4024,2.4042,2.4042,2.4055,2.4075,2.4072,2.4092,2.4095,2.4101,2.4113,2.4106,2.4118,2.4115,2.4126,2.4124,2.4143,2.4146,2.4145,2.4144,2.4145,2.4145,2.4148,2.4145,2.4143,2.4143,2.4142,2.4142,0,2.4058,2.4059,2.4081,2.4088,2.409,2.4104,2.411,2.4121,2.4122,2.4138,2.4142,2.4143,2.4156,2.4155,2.4169,2.4168,2.4191,2.4188,2.4188,2.4187,2.4202,2.4201,2.4254,2.426,2.4215,2.4216,2.4216,0,2.4081,2.4095,2.4103,2.4112,2.4117,2.413,2.4138,2.4136,2.4144,2.4154,2.4164,2.4177,2.4187,2.4208,2.421,2.4221,2.4217,2.4235,2.4219,2.4219,2.4216,2.4215,2.4216,2.4238,2.4238,2.4239,2.4239,0,2.412,2.412,2.4132,2.4145,2.4155,2.4164,2.4173,2.418,2.4179,2.4188,2.4202,2.421,2.4225,2.4238,2.4248,2.4252,2.4245,2.4245,2.4249,2.4249,2.4248,2.4248,2.4196,2.4243,2.4243,2.4242,2.4242,2.4242,2.4149,2.4161,2.4169,2.4183,2.4189,2.4198,2.4209,2.4212,2.4223,2.4236,2.4234,2.425,2.4257,2.4271,2.4275,2.4287,2.428,2.4286,2.4287,2.4288,2.429,2.4248,2.4289,2.4288,2.4288,2.4288,2.4288,0,2.4187,2.4192,2.4205,2.4218,2.4228,2.4223,2.4232,2.4241,2.4255,2.4263,2.4273,2.4289,2.4301,2.4304,2.4316,2.4324,2.4321,2.4327,2.4326,2.4327,2.4295,2.429,2.4329,2.4329,2.4329,2.4329,2.4329,2.4329,2.4208,2.4228,2.423,2.4253,2.4257,2.4273,2.4279,2.4286,2.4292,2.4311,2.4321,2.4323,2.4329,2.4341,2.4352,2.4353,2.4357,2.4363,2.4363,2.4333,2.4329,2.4325,2.432,2.4365,2.4365,2.4393,2.4393,2.4393]}]]